sat.trackr.live / text

‹ back to catalog

STARLINK-30253

NORAD 57525 · 2023-115E

PAYLOAD ACTIVE UNKNOWN

§ Identity

Operator
Country
US
Launch date
2023-08-08
Launch site
AFWTR
Launch vehicle
Mass (kg)
RCS (m²)

Purposes: comms

External: N2YO · Heavens-Above · Gunter

§ Orbital elements

Epoch: 2026-05-25T02:05:32.688960Z

Period
94.27 min
Inclination
43.0015°
Eccentricity
0.0001191
Mean motion
15.27582341 rev/d
Perigee alt
482.2 km
Apogee alt
483.9 km
Semi-major
6,861.2 km
B*
2.1102e-5
RAAN
290.2907°
Arg perigee
300.1879°
Mean anomaly
59.8855°
Rev number
15,403

§ Raw data

STARLINK-302531 57525U 23115E   26145.08718390  .00000319  00000+0  21102-4 0  99922 57525  43.0015 290.2907 0001191 300.1879  59.8855 15.27582341154039

JSON: /api/v1/satellites/57525 · /tle

For live sub-satellite position, see the globe view (requires WebGL).

§ Visibility from observer

Set your observer location to see the next 7 days of passes ≥ 10°. The values pass through the URL so the page stays shareable.

No JS? Fill the form by hand. The geolocation button needs JavaScript.